Preview of NWS' New Version of Forecast
This preview is not operational and should not be used for support decisions.

Regional Weather Roundup (RWR)

Issued by National Weather Service (NWS)

                            
000
ASUS46 KSEW 161110
RWRWA 

WASHINGTON REGIONAL WEATHER ROUNDUP
NATIONAL WEATHER SERVICE SEATTLE WA
400 AM PDT TUE JUL 16 2019

NOTE:"FAIR" INDICATES FEW OR NO CLOUDS BELOW 12,000 FEET WITH NO 
SIGNIFICANT WEATHER AND/OR OBSTRUCTIONS TO VISIBILITY.

WAZ507-509-555>559-161200-
SEATTLE, TACOMA, EVERETT, AND VICINITY
  
CITY           SKY/WX    TMP DP  RH WIND       PRES   REMARKS
EVERETT        CLOUDY    60  56  86 N5        30.04S                  
BOEING FIELD   CLOUDY    63  56  78 W3        30.02S                  
RENTON         CLOUDY    65  59  81 SW3       30.02S                  
SEATAC AIRPORT CLOUDY    62  58  86 CALM      30.03F                  
JBLM-MCCHORD   CLOUDY    60  60 100 CALM      30.03S                  
PUYALLUP       CLOUDY    63  63 100 CALM      30.04R                  
BREMERTON      CLOUDY    59  58  96 NE3       30.03F                  
JBLM-FT LEWIS  NOT AVBL                                               
TACOMA NARROWS CLOUDY    60  58  92 CALM      30.04S                  
$$
 
WAZ001-503-506-510-514-515-161200-
NORTH INTERIOR
  
CITY           SKY/WX    TMP DP  RH WIND       PRES   REMARKS
BELLINGHAM     CLEAR     55  50  83 CALM      30.01S                  
FRIDAY HARBOR  MOCLDY    50  49  96 CALM      30.03R FOG              
EASTSOUND      CLEAR     59  55  88 S6        30.00S                  
PORT ANGELES   PTCLDY    55  55 100 W7        30.04S                  
EDIZ HOOK      CLOUDY    56  55  99 W10       30.03S FOG              
PORT TOWNSEND  CLOUDY    52  52 100 CALM      30.03R                  
NAS WHIDBEY    MOCLDY    60  55  83 SW3       30.07S                  
ARLINGTON      CLEAR     56  54  93 N3        30.04S                  
BURLINGTON     MOCLDY    54  54 100 CALM      30.04S FOG              
$$
 
WAZ020-022-039-040-504-511-512-161200-
SOUTHWEST INTERIOR
  
CITY           SKY/WX    TMP DP  RH WIND       PRES   REMARKS
SHELTON        FOG       59  57  93 W5        30.01S VSB 1/2          
OLYMPIA        CLOUDY    60  58  92 S5        30.03S                  
CHEHALIS       FOG       59  59 100 CALM      30.04S VSB 1/2          
KELSO          CLOUDY    62  61  96 VRB5      30.03F                  
VANCOUVER      MOCLDY    64  59  83 NW3       30.01S                  
SCAPPOOSE, OR  MOCLDY    64  58  80 NW3       30.00F                  
PORTLAND, OR   CLOUDY    66  59  78 W6        30.01F                  
$$
 
WAZ021-516-517-161200-
WASHINGTON COAST
  
CITY           SKY/WX    TMP DP  RH WIND       PRES   REMARKS
FORKS          CLOUDY    60  58  92 CALM      30.03F                  
HOQUIAM        MOCLDY    60  60 100 N3        30.03S                  
ASTORIA, OR    CLOUDY   N/A N/A N/A CALM      30.02S                  
$$
 
WAZ019-023-024-040-567>569-161200-
CASCADE MOUNTAINS AND COLUMBIA GORGE
  
CITY           SKY/WX    TMP DP  RH WIND       PRES   REMARKS
STAMPEDE PASS  FOG       52  50  93 VRB5      30.07F VSB 1/4          
TROUTDALE, OR  CLOUDY    66  60  81 W5        30.01S                  
HOOD RIVER, OR PTSUNNY   61  55  82 CALM      30.00R                  
THE DALLES, OR PTCLDY    63  56  78 CALM      29.97F                  
$$

WAZ026-027-041>044-520-521-161200-
EAST SLOPES
  
CITY           SKY/WX    TMP DP  RH WIND       PRES   REMARKS
OMAK           CLOUDY    63  52  67 NW12      29.96R                  
WENATCHEE      CLEAR     62  49  62 VRB7      29.95S                  
ELLENSBURG     CLEAR     57  50  77 NW12      29.98F                  
YAKIMA         PTCLDY    53  49  86 W6        29.97S                  
SUNNYSIDE ARPT MOSUNNY   55  54  94 NE3       29.97                   
YAKIMA TC      FAIR      57  48  72 SE3       29.96F                  
$$

WAZ028-034-035-161200-
COLUMBIA BASIN
  
CITY           SKY/WX    TMP DP  RH WIND       PRES   REMARKS
EPHRATA        CLEAR     63  47  55 W8        29.93S                  
MOSES LAKE     CLEAR     61  50  67 W6        29.94S                  
PASCO          MOCLDY    65  54  67 CALM      29.96R                  
RICHLAND ARPT  PTSUNNY   66  55  69 MISG      29.95                   
HERMISTON, OR  CLOUDY    66  54  65 SW8       29.96S                  
$$

WAZ036>038-161200-
NORTHEAST WASHINGTON
  
CITY           SKY/WX    TMP DP  RH WIND       PRES   REMARKS
SPOKANE GEIGER MOCLDY    59  47  64 E3        29.99S                  
SPOKANE FELTS  CLOUDY    61  54  77 NE3       29.98S                  
FAIRCHILD AFB  CLOUDY    58  53  83 CALM      29.99S                  
COEURDALENE,ID MOCLDY    59  53  80 NE3       30.00S                  
DEER PARK      CLOUDY    57  52  83 NE3       29.99S                  
$$

WAZ029>033-161200-
SOUTHEAST WASHINGTON
  
CITY           SKY/WX    TMP DP  RH WIND       PRES   REMARKS
PULLMAN        MOCLDY    54  49  83 NE5       30.02S                  
LEWISTON, ID   MOCLDY    62  53  72 CALM      29.98R                  
WALLA WALLA    CLOUDY    65  50  58 S8        29.99R                  
PENDLETON, OR  MOCLDY    64  51  62 S7        29.99F                  
$$